DW5852 Weather Reports


Display with metric or nautical units.
time (UTC)temp
F
wind
direction
speed
MPH
gust
MPH
rain 1hr
in
rain 24hr
in
rain mn
in
humidity
%
barometer
mb
20180526101234 64 330 0.0 1.0 0.00 0.00 0.00 11 1033.1
20180526100735 64 42 0.0 1.0 0.00 0.00 0.00 10 1033.1
20180526100234 64 1 0.0 1.0 0.00 0.00 0.00 10 1033.2
20180526095734 65 355 0.0 4.0 0.00 0.00 0.00 10 1033.2
20180526095235 64 340 0.0 4.0 0.00 0.00 0.00 10 1033.3
20180526094734 64 316 0.0 1.0 0.00 0.00 0.00 10 1033.3
20180526094234 64 34 0.0 1.0 0.00 0.00 0.00 10 1033.4
20180526093735 64 188 0.0 1.0 0.00 0.00 0.00 11 1033.4
20180526093235 64 330 0.0 1.0 0.00 0.00 0.00 10 1033.4
20180526092735 64 333 0.0 1.0 0.00 0.00 0.00 10 1033.5
20180526092235 64 6 0.0 1.0 0.00 0.00 0.00 10 1033.6
20180526091734 64 264 0.0 1.0 0.00 0.00 0.00 10 1033.5
20180526091235 64 345 1.0 1.0 0.00 0.00 0.00 10 1033.5
20180526090735 65 310 0.0 2.0 0.00 0.00 0.00 10 1033.5
20180526090235 64 348 0.0 4.0 0.00 0.00 0.00 10 1033.5
20180526085735 63 301 0.0 2.0 0.00 0.00 0.00 10 1033.6
20180526085235 63 300 0.0 1.0 0.00 0.00 0.00 10 1033.7
20180526084735 63 15 0.0 2.0 0.00 0.00 0.00 10 1033.8
20180526084235 63 58 0.0 1.0 0.00 0.00 0.00 10 1033.7
20180526083735 63 70 0.0 1.0 0.00 0.00 0.00 10 1033.8
20180526083234 64 99 0.0 1.0 0.00 0.00 0.00 10 1033.9
20180526082735 64 107 0.0 1.0 0.00 0.00 0.00 9 1033.9
20180526082235 66 75 0.0 0.0 0.00 0.00 0.00 9 1034.0
20180526081735 67 235 0.0 1.0 0.00 0.00 0.00 8 1034.0
20180526081234 68 259 0.0 2.0 0.00 0.00 0.00 8 1034.0
20180526080735 68 250 0.0 5.0 0.00 0.00 0.00 8 1034.1
20180526080235 68 276 0.0 5.0 0.00 0.00 0.00 7 1034.2
20180526075735 69 257 1.0 5.0 0.00 0.00 0.00 7 1034.2
20180526075234 69 262 1.0 3.0 0.00 0.00 0.00 7 1034.4
20180526074734 69 212 0.0 4.0 0.00 0.00 0.00 7 1034.6
20180526074235 69 254 1.0 4.0 0.00 0.00 0.00 7 1034.7
20180526073735 68 263 0.0 3.0 0.00 0.00 0.00 7 1034.7
20180526073235 68 222 1.0 4.0 0.00 0.00 0.00 8 1034.9
20180526072735 68 253 0.0 4.0 0.00 0.00 0.00 8 1034.9
20180526072234 68 241 3.0 5.0 0.00 0.00 0.00 8 1035.0
20180526071735 67 259 0.0 3.0 0.00 0.00 0.00 8 1035.1
20180526071235 67 246 2.0 2.0 0.00 0.00 0.00 9 1035.2
20180526070735 67 250 0.0 2.0 0.00 0.00 0.00 8 1035.3
20180526070234 67 246 1.0 2.0 0.00 0.00 0.00 9 1035.4
20180526065734 67 243 0.0 1.0 0.00 0.00 0.00 9 1035.5
20180526065234 67 234 0.0 1.0 0.00 0.00 0.00 9 1035.6
20180526064734 68 266 0.0 2.0 0.00 0.00 0.00 9 1035.7
20180526064235 68 233 0.0 3.0 0.00 0.00 0.00 9 1035.8
20180526063735 69 229 0.0 5.0 0.00 0.00 0.00 8 1035.8
20180526063234 69 261 0.0 3.0 0.00 0.00 0.00 8 1035.9
20180526062735 69 226 0.0 4.0 0.00 0.00 0.00 8 1036.0
20180526062235 69 269 0.0 5.0 0.00 0.00 0.00 8 1036.0
20180526061735 69 270 0.0 5.0 0.00 0.00 0.00 8 1036.1
20180526061235 69 293 0.0 2.0 0.00 0.00 0.00 8 1036.2
20180526060734 69 262 0.0 3.0 0.00 0.00 0.00 8 1036.3
20180526060235 69 266 1.0 3.0 0.00 0.00 0.00 8 1036.5
20180526055735 69 243 0.0 3.0 0.00 0.00 0.00 8 1036.5
20180526055235 69 242 0.0 2.0 0.00 0.00 0.00 8 1036.5
20180526054735 69 236 0.0 3.0 0.00 0.00 0.00 8 1036.7
20180526054234 69 248 0.0 3.0 0.00 0.00 0.00 9 1036.6
20180526053735 69 253 1.0 5.0 0.00 0.00 0.00 9 1036.6
20180526053235 69 258 0.0 3.0 0.00 0.00 0.00 9 1036.7
20180526052735 70 249 0.0 5.0 0.00 0.00 0.00 9 1036.8
20180526052234 70 269 0.0 4.0 0.00 0.00 0.00 9 1036.8
20180526051735 70 241 4.0 4.0 0.00 0.00 0.00 9 1036.8
20180526051235 70 253 0.0 3.0 0.00 0.00 0.00 9 1036.9
20180526050735 70 250 0.0 4.0 0.00 0.00 0.00 9 1036.9
20180526050235 70 284 2.0 4.0 0.00 0.00 0.00 10 1036.9
20180526045734 70 218 0.0 2.0 0.00 0.00 0.00 10 1036.9
20180526045235 71 276 0.0 5.0 0.00 0.00 0.00 10 1037.0
20180526044734 71 190 0.0 3.0 0.00 0.00 0.00 11 1037.1
20180526044234 70 273 1.0 6.0 0.00 0.00 0.00 11 1037.0
20180526043735 70 212 0.0 4.0 0.00 0.00 0.00 12 1037.1
20180526043235 70 263 0.0 6.0 0.00 0.00 0.00 12 1037.1
20180526042735 69 287 1.0 5.0 0.00 0.00 0.00 13 1037.0
20180526042235 68 235 2.0 3.0 0.00 0.00 0.00 13 1037.0
20180526041735 68 257 0.0 2.0 0.00 0.00 0.00 14 1036.9
20180526041234 68 249 0.0 3.0 0.00 0.00 0.00 14 1036.7
20180526040735 68 261 1.0 3.0 0.00 0.00 0.00 14 1036.7
20180526040235 68 245 0.0 3.0 0.00 0.00 0.00 14 1036.7
20180526035734 69 229 0.0 1.0 0.00 0.00 0.00 14 1036.7
20180526035235 69 253 0.0 1.0 0.00 0.00 0.00 14 1036.6
20180526034734 69 240 0.0 1.0 0.00 0.00 0.00 13 1036.5
20180526034235 70 250 0.0 1.0 0.00 0.00 0.00 13 1036.4
20180526033734 70 243 0.0 1.0 0.00 0.00 0.00 13 1036.4
20180526033235 70 258 0.0 1.0 0.00 0.00 0.00 13 1036.4
20180526032734 69 264 0.0 2.0 0.00 0.00 0.00 14 1036.4
20180526032235 69 253 1.0 2.0 0.00 0.00 0.00 14 1036.4
20180526031735 69 238 0.0 2.0 0.00 0.00 0.00 14 1036.4
20180526031234 69 245 1.0 3.0 0.00 0.00 0.00 14 1036.4
20180526030734 70 244 3.0 4.0 0.00 0.00 0.00 13 1036.4
20180526030234 71 229 2.0 2.0 0.00 0.00 0.00 13 1036.2
20180526025734 72 238 1.0 1.0 0.00 0.00 0.00 11 1036.1
20180526025234 73 256 0.0 1.0 0.00 0.00 0.00 11 1036.1
20180526024734 73 266 0.0 2.0 0.00 0.00 0.00 11 1036.0
20180526024235 72 256 0.0 3.0 0.00 0.00 0.00 11 1035.8
20180526023735 72 260 2.0 5.0 0.00 0.00 0.00 11 1035.8
20180526023234 72 250 0.0 3.0 0.00 0.00 0.00 12 1035.8
20180526022735 73 229 0.0 2.0 0.00 0.00 0.00 11 1035.7
20180526022235 73 248 0.0 6.0 0.00 0.00 0.00 10 1035.6
20180526021734 74 248 1.0 6.0 0.00 0.00 0.00 11 1035.6
20180526021234 74 252 3.0 7.0 0.00 0.00 0.00 10 1035.5
20180526020735 74 235 2.0 6.0 0.00 0.00 0.00 10 1035.5
20180526020235 75 253 2.0 5.0 0.00 0.00 0.00 10 1035.4
20180526015735 76 256 3.0 3.0 0.00 0.00 0.00 10 1035.4
20180526015235 77 242 0.0 3.0 0.00 0.00 0.00 9 1035.4
20180526014735 78 262 1.0 5.0 0.00 0.00 0.00 9 1035.3
20180526014235 78 273 3.0 8.0 0.00 0.00 0.00 9 1035.2
20180526013735 79 204 5.0 11.0 0.00 0.00 0.00 8 1035.1
20180526013235 79 260 3.0 9.0 0.00 0.00 0.00 8 1034.9
20180526012735 79 250 5.0 11.0 0.00 0.00 0.00 9 1034.9
20180526012234 79 239 0.0 8.0 0.00 0.00 0.00 9 1034.8
20180526011735 80 226 0.0 10.0 0.00 0.00 0.00 9 1034.8
20180526011234 80 253 6.0 13.0 0.00 0.00 0.00 8 1034.6
20180526010734 80 246 8.0 13.0 0.00 0.00 0.00 8 1034.5
20180526010234 80 285 1.0 11.0 0.00 0.00 0.00 9 1034.5
20180526005735 80 247 5.0 11.0 0.00 0.00 0.00 9 1034.4
20180526005234 81 247 5.0 11.0 0.00 0.00 0.00 9 1034.3
20180526004735 81 264 5.0 15.0 0.00 0.00 0.00 9 1034.2
20180526004235 81 242 3.0 11.0 0.00 0.00 0.00 9 1034.2
20180526003735 81 252 11.0 14.0 0.00 0.00 0.00 9 1034.1
20180526003235 81 221 5.0 12.0 0.00 0.00 0.00 9 1034.1
20180526002734 82 240 4.0 9.0 0.00 0.00 0.00 9 1034.0
20180526002234 82 252 11.0 13.0 0.00 0.00 0.00 8 1034.0
20180526001734 82 167 3.0 9.0 0.00 0.00 0.00 9 1034.0
20180526001234 82 284 3.0 12.0 0.00 0.00 0.00 8 1033.9
20180526000734 82 262 6.0 12.0 0.00 0.00 0.00 8 1033.9
20180526000235 82 238 3.0 9.0 0.00 0.00 0.00 8 1033.8
20180525235734 82 205 3.0 12.0 0.00 0.00 0.00 8 1033.8
20180525235235 82 302 2.0 12.0 0.00 0.00 0.00 8 1033.7
20180525234734 82 252 5.0 14.0 0.00 0.00 0.00 8 1033.6
20180525234234 83 261 3.0 10.0 0.00 0.00 0.00 8 1033.5
20180525233734 83 237 1.0 8.0 0.00 0.00 0.00 7 1033.4
20180525233235 83 229 2.0 13.0 0.00 0.00 0.00 7 1033.4
20180525232734 84 278 6.0 16.0 0.00 0.00 0.00 7 1033.4
20180525232234 84 219 0.0 9.0 0.00 0.00 0.00 7 1033.2
20180525231734 83 225 0.0 9.0 0.00 0.00 0.00 7 1033.2
20180525231234 83 250 7.0 13.0 0.00 0.00 0.00 7 1033.2
20180525230734 84 231 11.0 13.0 0.00 0.00 0.00 7 1033.2
20180525230235 84 195 12.0 12.0 0.00 0.00 0.00 7 1033.1
20180525225734 84 125 3.0 9.0 0.00 0.00 0.00 8 1033.0
20180525225234 83 218 2.0 12.0 0.00 0.00 0.00 8 1033.1
20180525224735 83 232 3.0 11.0 0.00 0.00 0.00 8 1032.9
20180525224235 84 281 10.0 10.0 0.00 0.00 0.00 8 1032.9
20180525223734 84 232 2.0 11.0 0.00 0.00 0.00 8 1032.9
20180525223234 85 283 1.0 10.0 0.00 0.00 0.00 7 1032.8
20180525222735 85 274 7.0 8.0 0.00 0.00 0.00 8 1032.8
20180525222234 85 285 2.0 5.0 0.00 0.00 0.00 8 1032.8
20180525221735 85 155 0.0 9.0 0.00 0.00 0.00 9 1032.7
20180525221234 84 176 2.0 7.0 0.00 0.00 0.00 9 1032.7
20180525220734 84 203 6.0 10.0 0.00 0.00 0.00 9 1032.7
20180525220234 83 155 2.0 10.0 0.00 0.00 0.00 8 1032.7
20180525215734 83 269 1.0 16.0 0.00 0.00 0.00 8 1032.7
20180525215235 83 113 4.0 18.0 0.00 0.00 0.00 8 1032.6
20180525214734 84 159 4.0 14.0 0.00 0.00 0.00 8 1032.5
20180525214234 84 175 7.0 9.0 0.00 0.00 0.00 8 1032.7
20180525213734 84 181 7.0 12.0 0.00 0.00 0.00 8 1032.6
20180525213235 84 203 1.0 13.0 0.00 0.00 0.00 8 1032.6
20180525212734 83 218 2.0 14.0 0.00 0.00 0.00 9 1032.5
20180525212234 82 203 5.0 14.0 0.00 0.00 0.00 8 1032.6
20180525211735 82 232 5.0 18.0 0.00 0.00 0.00 9 1032.6
20180525211234 83 145 5.0 17.0 0.00 0.00 0.00 8 1032.6
20180525210734 83 126 1.0 16.0 0.00 0.00 0.00 9 1032.6
20180525210234 83 142 1.0 14.0 0.00 0.00 0.00 9 1032.6
20180525205734 83 244 7.0 12.0 0.00 0.00 0.00 9 1032.6
20180525205235 83 166 6.0 14.0 0.00 0.00 0.00 10 1032.6
20180525204735 83 139 3.0 12.0 0.00 0.00 0.00 10 1032.5
20180525204235 83 271 7.0 9.0 0.00 0.00 0.00 10 1032.5
20180525203734 83 179 1.0 15.0 0.00 0.00 0.00 10 1032.5
20180525203235 84 207 6.0 11.0 0.00 0.00 0.00 9 1032.5
20180525202735 83 215 0.0 12.0 0.00 0.00 0.00 11 1032.4
20180525202234 82 222 1.0 9.0 0.00 0.00 0.00 10 1032.5
20180525201734 82 202 0.0 11.0 0.00 0.00 0.00 10 1032.5
20180525201235 82 99 1.0 12.0 0.00 0.00 0.00 10 1032.5
20180525200734 82 158 4.0 8.0 0.00 0.00 0.00 11 1032.5
20180525200234 82 148 8.0 19.0 0.00 0.00 0.00 10 1032.4
20180525195734 82 153 8.0 19.0 0.00 0.00 0.00 11 1032.4
20180525195235 81 135 7.0 18.0 0.00 0.00 0.00 10 1032.5
20180525194735 82 197 4.0 15.0 0.00 0.00 0.00 10 1032.5
20180525194234 82 125 3.0 5.0 0.00 0.00 0.00 11 1032.6
20180525193735 81 148 1.0 12.0 0.00 0.00 0.00 11 1032.6
20180525193235 82 255 1.0 10.0 0.00 0.00 0.00 10 1032.6
20180525192734 82 221 8.0 11.0 0.00 0.00 0.00 11 1032.6
20180525192235 81 218 1.0 5.0 0.00 0.00 0.00 12 1032.6
20180525191734 80 239 3.0 18.0 0.00 0.00 0.00 11 1032.6
20180525191235 81 160 7.0 12.0 0.00 0.00 0.00 10 1032.4
20180525190735 81 215 0.0 7.0 0.00 0.00 0.00 10 1032.6
20180525190234 81 221 5.0 7.0 0.00 0.00 0.00 10 1032.6
20180525185734 81 222 1.0 5.0 0.00 0.00 0.00 10 1032.7
20180525185234 81 245 0.0 6.0 0.00 0.00 0.00 10 1032.7
20180525184734 81 238 5.0 10.0 0.00 0.00 0.00 10 1032.6
20180525184234 80 155 0.0 10.0 0.00 0.00 0.00 10 1032.7
20180525183734 80 221 3.0 11.0 0.00 0.00 0.00 9 1032.7
20180525183235 81 120 0.0 10.0 0.00 0.00 0.00 9 1032.7
20180525182734 81 70 4.0 7.0 0.00 0.00 0.00 10 1032.7
20180525182234 81 86 2.0 7.0 0.00 0.00 0.00 9 1032.8
20180525181734 80 77 1.0 12.0 0.00 0.00 0.00 11 1032.8
20180525181234 79 25 4.0 7.0 0.00 0.00 0.00 10 1032.7
20180525180735 79 110 0.0 6.0 0.00 0.00 0.00 10 1032.7
20180525180234 79 215 0.0 5.0 0.00 0.00 0.00 11 1032.8
20180525175734 78 260 0.0 5.0 0.00 0.00 0.00 12 1032.8
20180525175234 78 87 6.0 7.0 0.00 0.00 0.00 11 1032.8
20180525174734 78 134 0.0 7.0 0.00 0.00 0.00 12 1032.8
20180525174235 77 221 0.0 5.0 0.00 0.00 0.00 12 1032.9
20180525173734 78 169 5.0 8.0 0.00 0.00 0.00 12 1032.9
20180525173234 78 187 0.0 5.0 0.00 0.00 0.00 12 1032.8
20180525172734 78 148 4.0 5.0 0.00 0.00 0.00 12 1032.9
20180525172234 77 232 0.0 4.0 0.00 0.00 0.00 15 1032.9
20180525171735 77 80 4.0 7.0 0.00 0.00 0.00 14 1032.8
20180525171234 77 110 2.0 4.0 0.00 0.00 0.00 13 1032.9
20180525170735 77 165 1.0 6.0 0.00 0.00 0.00 14 1032.9
20180525170234 76 108 0.0 3.0 0.00 0.00 0.00 14 1032.9
20180525165734 76 148 1.0 5.0 0.00 0.00 0.00 14 1032.8
20180525165234 75 158 0.0 2.0 0.00 0.00 0.00 15 1032.8
20180525164734 75 98 0.0 3.0 0.00 0.00 0.00 16 1032.8
20180525164235 73 135 0.0 2.0 0.00 0.00 0.00 16 1032.8
20180525163735 72 166 0.0 3.0 0.00 0.00 0.00 17 1032.8
20180525163235 72 56 2.0 4.0 0.00 0.00 0.00 16 1032.9
20180525162734 72 174 1.0 3.0 0.00 0.00 0.00 17 1032.9
20180525162235 71 342 0.0 5.0 0.00 0.00 0.00 18 1032.9
20180525161735 71 139 0.0 3.0 0.00 0.00 0.00 18 1032.9
20180525161234 70 66 2.0 5.0 0.00 0.00 0.00 19 1033.0
20180525160734 70 32 0.0 6.0 0.00 0.00 0.00 18 1033.0
20180525160235 70 108 0.0 3.0 0.00 0.00 0.00 19 1032.9
20180525155735 69 95 2.0 3.0 0.00 0.00 0.00 19 1032.9
20180525155234 69 58 0.0 4.0 0.00 0.00 0.00 20 1032.9
20180525154735 68 84 2.0 7.0 0.00 0.00 0.00 20 1033.0
20180525154235 68 129 1.0 4.0 0.00 0.00 0.00 20 1033.0
20180525153735 69 58 3.0 6.0 0.00 0.00 0.00 18 1033.0
20180525153235 69 61 0.0 4.0 0.00 0.00 0.00 18 1032.9
20180525152735 69 77 3.0 6.0 0.00 0.00 0.00 17 1033.0
20180525152235 69 120 2.0 4.0 0.00 0.00 0.00 20 1033.0
20180525151735 68 136 1.0 8.0 0.00 0.00 0.00 20 1033.0
20180525151234 69 75 2.0 6.0 0.00 0.00 0.00 20 1033.0
20180525150734 69 87 0.0 4.0 0.00 0.00 0.00 17 1032.9
20180525150235 69 94 0.0 5.0 0.00 0.00 0.00 16 1032.9
20180525145735 69 130 0.0 2.0 0.00 0.00 0.00 16 1032.9
20180525145234 68 9 0.0 2.0 0.00 0.00 0.00 17 1032.9
20180525144734 69 110 0.0 1.0 0.00 0.00 0.00 17 1033.0
20180525144235 68 84 0.0 1.0 0.00 0.00 0.00 17 1033.0
20180525143734 68 50 0.0 2.0 0.00 0.00 0.00 17 1033.1
20180525143234 68 58 0.0 2.0 0.00 0.00 0.00 18 1033.1
20180525142734 68 113 0.0 1.0 0.00 0.00 0.00 17 1033.2
20180525142234 68 46 1.0 1.0 0.00 0.00 0.00 17 1033.3
20180525141735 67 77 0.0 1.0 0.00 0.00 0.00 19 1033.3
20180525141234 67 18 0.0 2.0 0.00 0.00 0.00 19 1033.3
20180525140735 67 65 0.0 1.0 0.00 0.00 0.00 18 1033.2
20180525140235 67 30 0.0 1.0 0.00 0.00 0.00 19 1033.1
20180525135735 67 29 0.0 0.0 0.00 0.00 0.00 19 1033.1
20180525135234 66 100 0.0 0.0 0.00 0.00 0.00 20 1033.2
20180525134735 66 77 0.0 0.0 0.00 0.00 0.00 19 1033.2
20180525134235 66 44 0.0 1.0 0.00 0.00 0.00 22 1033.2
20180525133734 66 58 0.0 0.0 0.00 0.00 0.00 22 1033.2
20180525133234 66 5 0.0 0.0 0.00 0.00 0.00 21 1033.1
20180525132734 65 269 0.0 0.0 0.00 0.00 0.00 22 1033.1
20180525132234 64 268 0.0 0.0 0.00 0.00 0.00 25 1033.1
20180525131734 63 269 0.0 0.0 0.00 0.00 0.00 23 1033.2
20180525131235 62 269 0.0 0.0 0.00 0.00 0.00 23 1033.2
20180525130735 61 269 0.0 0.0 0.00 0.00 0.00 27 1033.2
20180525130235 61 269 0.0 0.0 0.00 0.00 0.00 25 1033.2
20180525125734 61 268 0.0 0.0 0.00 0.00 0.00 24 1033.2
20180525125235 61 269 0.0 0.0 0.00 0.00 0.00 24 1033.2
20180525124734 61 269 0.0 0.0 0.00 0.00 0.00 23 1033.2
20180525124234 60 268 0.0 0.0 0.00 0.00 0.00 23 1033.3
20180525123735 60 268 0.0 0.0 0.00 0.00 0.00 23 1033.3
20180525123234 59 269 0.0 0.0 0.00 0.00 0.00 24 1033.3
20180525122734 58 269 0.0 0.0 0.00 0.00 0.00 24 1033.3
20180525122235 59 232 0.0 0.0 0.00 0.00 0.00 25 1033.4
20180525121734 59 215 0.0 0.0 0.00 0.00 0.00 24 1033.4
20180525121234 58 212 0.0 0.0 0.00 0.00 0.00 24 1033.3
20180525120734 57 160 0.0 0.0 0.00 0.00 0.00 25 1033.4
20180525120234 56 160 0.0 0.0 0.00 0.00 0.00 26 1033.4
20180525115734 56 160 0.0 0.0 0.00 0.00 0.00 26 1033.5
20180525115234 57 160 0.0 0.0 0.00 0.00 0.00 26 1033.5
20180525114734 58 12 0.0 0.0 0.00 0.00 0.00 24 1033.5
20180525114235 59 4 0.0 1.0 0.00 0.00 0.00 24 1033.5
20180525113735 58 315 0.0 0.0 0.00 0.00 0.00 24 1033.5
20180525113234 58 325 0.0 0.0 0.00 0.00 0.00 25 1033.6
20180525112734 58 252 0.0 0.0 0.00 0.00 0.00 25 1033.6
20180525112235 58 212 0.0 0.0 0.00 0.00 0.00 25 1033.6
20180525111735 58 241 0.0 0.0 0.00 0.00 0.00 24 1033.6
20180525111235 58 316 0.0 0.0 0.00 0.00 0.00 24 1033.7
20180525110735 58 300 0.0 0.0 0.00 0.00 0.00 25 1033.7
20180525110235 58 308 0.0 1.0 0.00 0.00 0.00 24 1033.9
20180525105734 59 316 0.0 1.0 0.00 0.00 0.00 24 1033.9
20180525105235 59 315 0.0 0.0 0.00 0.00 0.00 24 1034.0
20180525104734 58 332 0.0 0.0 0.00 0.00 0.00 24 1034.1
20180525104234 58 241 0.0 0.0 0.00 0.00 0.00 24 1034.2
20180525103735 58 239 0.0 1.0 0.00 0.00 0.00 24 1034.2
20180525103235 59 277 0.0 1.0 0.00 0.00 0.00 24 1034.2
20180525102734 59 287 1.0 1.0 0.00 0.00 0.00 25 1034.3
20180525102235 59 281 0.0 1.0 0.00 0.00 0.00 24 1034.4
20180525101734 58 300 0.0 0.0 0.00 0.00 0.00 25 1034.6